Theta_e
356 355 353 351 352 354 347 340 316 320 315 308 309 312 312 323 326 319 319 323 319 327 329 330 330 329 324 320 322 325 325 317 317 306 303 319 341 345 347 351 353 354 353 354 355 357 359 363 363 362 362 362 361 360 361 361 361 361 362 362 362 362 361 361 362 362 362 362 362 362 362 363 362 362 363 362 362 363 362 361 362 362 362 363 363 362 363 363 362 362 363 364 364 364 364 363 363
355 351 353 351 349 348 333 336 317 312 312 308 310 315 314 323 325 319 317 320 321 324 329 330 330 330 329 328 327 326 323 328 329 322 332 340 343 344 350 353 353 352 354 355 357 357 358 361 363 362 362 361 360 360 360 360 361 361 361 362 362 361 361 361 361 362 362 361 362 362 362 363 363 363 363 361 363 363 362 361 361 362 362 363 364 364 363 364 362 362 363 363 363 364 363 363 364
351 348 346 350 351 345 339 336 311 308 307 303 309 315 322 319 318 320 322 324 326 328 330 329 330 329 327 326 322 323 314 331 331 333 333 341 338 341 351 353 354 354 354 356 358 359 358 360 364 362 362 361 360 360 360 360 361 360 361 361 361 361 361 361 360 361 362 363 362 362 361 362 363 362 363 363 363 363 363 362 362 363 364 364 365 365 365 364 364 363 364 363 363 363 364 363 363
347 347 342 343 335 344 326 322 314 308 306 306 309 317 321 319 318 321 325 326 327 329 328 327 324 329 327 321 323 329 326 327 333 332 332 336 337 345 352 353 355 354 355 357 358 359 358 362 362 362 362 362 361 360 360 360 360 361 361 361 361 361 361 359 361 361 362 362 362 360 355 361 362 364 363 363 364 365 363 362 361 363 363 363 364 365 364 363 364 364 364 363 363 362 363 363 362
343 348 349 344 335 325 324 318 315 310 307 309 309 316 322 324 323 322 325 326 328 328 327 326 324 329 330 327 328 320 322 332 334 337 335 341 347 349 352 353 353 353 355 357 358 358 359 363 362 362 362 362 361 361 361 360 361 361 361 361 361 361 360 360 361 362 362 361 361 357 354 360 361 362 361 362 363 363 363 362 362 363 363 363 365 365 363 362 362 362 363 363 363 364 363 363 363
350 356 359 344 331 337 327 315 313 312 316 318 314 317 322 324 323 323 324 326 327 328 328 326 324 324 325 327 330 325 332 324 335 337 340 341 348 352 352 354 352 353 355 356 357 358 358 363 363 363 363 362 362 362 361 360 360 360 360 360 361 361 361 361 361 361 361 360 360 358 357 358 360 361 361 361 362 363 362 362 362 363 363 363 364 364 363 362 361 363 364 363 363 363 363 362 363
341 345 340 341 334 336 317 313 313 315 321 323 319 321 324 325 328 326 322 324 327 327 329 326 328 326 322 327 331 334 339 338 336 338 343 346 350 352 352 351 352 353 355 356 358 358 360 364 363 364 363 363 362 362 362 361 361 360 360 361 360 361 361 360 360 360 360 361 359 358 357 358 359 361 361 361 361 361 361 361 363 363 362 363 363 364 362 361 360 362 362 362 362 362 363 363 363
353 339 335 324 321 322 315 316 317 322 322 327 327 326 328 328 330 324 322 321 321 322 326 328 329 324 322 332 322 334 339 340 341 345 347 349 350 350 350 352 352 353 355 357 357 358 364 364 363 363 363 363 363 362 362 361 361 360 360 360 360 360 360 360 360 360 361 359 359 357 359 359 360 360 360 360 360 361 362 362 362 362 362 363 364 363 362 362 362 362 362 362 363 362 362 362 362
348 342 340 322 315 317 314 314 318 329 327 327 329 335 335 331 330 328 321 323 324 326 326 327 326 320 322 325 325 333 337 343 346 349 348 348 348 348 352 353 353 353 355 357 358 360 361 363 362 362 363 362 362 362 362 363 361 361 359 359 359 360 360 360 360 361 360 359 359 359 358 357 359 359 359 360 360 360 359 360 361 360 362 362 363 362 362 362 362 361 362 362 362 362 362 361 361
338 338 323 320 318 312 310 312 315 322 326 329 328 331 331 332 330 328 321 321 323 326 326 328 328 322 326 322 325 330 335 344 346 345 347 347 348 351 353 354 355 354 355 357 358 359 359 363 362 362 362 362 362 363 363 362 362 360 360 359 359 360 361 361 361 361 360 359 359 360 360 359 359 358 357 359 360 359 359 360 360 361 362 362 363 363 363 363 361 361 362 362 362 361 361 361 361
328 334 332 317 311 309 309 312 319 324 327 330 330 336 336 332 331 328 325 323 326 324 327 329 324 324 325 325 326 338 343 344 343 341 345 348 351 351 352 354 356 356 356 357 358 359 359 360 363 362 362 362 362 361 361 360 361 360 359 359 359 359 361 361 360 361 360 359 359 359 359 360 359 357 357 357 359 358 357 358 357 360 361 361 361 364 363 362 362 362 362 362 362 362 361 362 362
324 324 324 313 311 310 314 315 319 320 323 328 327 333 337 332 332 324 322 321 324 325 325 329 323 329 323 324 325 337 342 342 343 344 346 350 350 353 353 355 357 357 358 357 359 357 358 359 359 362 362 361 360 361 360 359 360 360 360 359 359 360 360 361 361 360 359 359 359 358 358 358 357 356 357 359 359 360 359 355 356 356 358 361 359 363 363 362 362 361 361 362 362 362 362 362 362
327 327 319 313 313 318 320 320 319 322 321 323 328 334 336 330 327 326 324 323 325 324 323 328 331 330 320 323 331 337 338 341 344 346 349 350 352 353 354 355 356 357 357 358 357 357 357 357 358 358 359 360 360 359 359 360 360 360 359 359 359 359 360 361 360 360 360 359 358 357 359 358 357 357 357 358 360 360 359 356 356 357 360 360 359 362 362 363 363 361 361 362 361 362 362 362 361
330 328 322 313 321 319 318 318 320 317 317 325 330 334 339 330 332 331 325 322 323 322 328 333 332 330 324 327 328 332 336 342 344 347 350 351 352 352 353 354 355 355 357 357 355 355 355 356 356 356 356 357 358 359 359 359 360 360 359 359 359 359 360 360 360 360 359 359 356 354 357 359 359 359 359 358 360 359 358 358 358 358 359 359 360 362 362 363 363 360 360 360 361 361 362 362 359
331 335 323 316 314 315 320 315 316 318 318 327 332 332 333 336 335 333 327 322 322 330 332 335 333 328 320 323 323 330 336 342 346 348 348 349 350 351 352 354 354 355 355 356 355 354 353 353 353 353 355 353 353 353 355 357 359 360 360 360 359 359 359 358 360 359 359 356 355 355 356 360 359 360 359 359 359 360 358 358 359 358 357 357 360 362 363 363 364 364 362 361 360 362 362 360 360
336 331 322 314 313 311 315 318 321 318 320 329 334 333 334 334 336 330 331 331 325 331 332 326 334 325 329 327 329 334 340 344 346 347 347 347 349 350 352 352 353 353 353 353 353 353 352 351 351 351 352 352 352 352 354 355 357 359 360 359 359 359 358 357 357 356 358 355 355 357 358 357 358 357 359 358 359 359 358 356 357 357 356 355 359 362 363 363 364 363 362 360 362 360 361 359 358
340 331 317 312 312 313 316 318 320 315 326 329 334 332 329 327 338 339 344 340 325 325 328 331 327 334 330 332 336 340 343 346 347 345 344 344 346 346 347 349 350 350 352 352 351 351 351 350 350 350 351 351 351 353 353 355 356 358 358 356 357 354 356 358 354 357 356 355 355 355 354 353 352 352 353 354 359 356 355 355 355 355 356 355 362 363 363 364 364 363 363 362 362 360 359 359 358
334 322 315 311 313 314 320 320 322 329 324 328 331 330 330 327 332 336 340 327 328 326 326 329 333 334 336 338 340 342 344 343 344 343 342 341 342 342 342 345 347 346 349 350 350 349 349 349 350 350 350 351 351 353 355 356 356 356 354 353 352 353 354 357 353 352 354 351 355 353 352 354 350 349 350 354 354 356 354 353 352 353 357 362 362 363 364 364 364 364 364 364 361 360 364 355 358
326 318 315 313 316 320 326 326 326 328 326 329 332 333 333 332 330 334 325 323 323 323 325 330 330 334 337 339 340 341 342 341 342 342 341 338 339 340 341 343 345 347 347 349 348 348 347 348 350 351 350 350 352 353 354 354 351 352 352 351 352 354 355 355 353 352 351 351 351 352 353 353 352 351 350 351 351 355 353 354 353 357 363 362 363 363 362 363 364 365 365 364 365 366 356 353 354
329 321 314 315 323 325 329 329 328 332 332 328 332 334 334 334 336 340 325 323 324 321 324 327 328 329 333 336 338 339 340 340 341 341 339 338 340 341 342 343 344 346 347 348 347 349 348 348 348 350 350 350 350 351 351 350 350 351 351 350 351 352 353 354 353 351 349 349 349 349 350 351 354 351 352 350 351 351 352 354 358 363 364 362 363 357 360 364 362 362 363 364 361 358 354 353 354
328 323 316 320 328 326 329 331 331 333 334 332 332 334 331 335 333 334 329 321 321 324 329 328 328 330 333 336 337 338 338 338 339 340 339 339 341 342 343 344 345 346 347 348 350 347 347 348 349 349 351 350 350 352 351 349 350 350 351 351 351 350 350 351 351 352 351 350 351 352 354 355 353 349 348 349 350 351 350 350 350 350 350 351 359 349 352 351 352 350 351 355 351 354 353 354 353
330 327 330 330 330 327 332 332 334 333 336 333 332 328 329 337 333 331 327 319 318 324 330 332 333 334 334 335 336 338 337 337 338 338 338 339 340 341 344 345 348 348 350 347 347 349 349 350 350 350 352 350 350 349 349 354 352 349 349 350 349 348 349 349 350 351 351 351 352 354 354 352 352 351 350 350 350 350 348 348 348 348 348 349 353 350 351 350 350 350 350 350 350 351 352 352 352
321 330 332 333 331 329 332 334 334 333 333 330 328 333 334 332 331 332 329 322 325 331 333 334 335 336 336 337 337 336 336 336 337 338 338 339 340 342 344 346 346 346 348 347 348 349 350 351 351 352 351 350 349 350 352 352 349 349 350 350 348 346 348 348 349 350 351 351 353 354 351 350 351 351 351 350 349 349 349 348 348 348 346 348 351 349 351 351 350 349 348 349 349 349 350 350 351
328 323 332 330 333 331 334 332 335 333 332 329 333 335 331 330 324 333 330 332 330 333 335 336 337 337 337 335 336 335 336 336 337 339 340 340 342 343 345 345 347 349 347 347 348 349 351 350 351 352 350 349 348 351 351 350 349 350 352 355 350 353 349 347 348 349 352 351 354 355 354 349 350 350 350 349 348 349 350 350 349 349 349 349 349 350 350 349 347 347 347 346 346 347 347 348 348
329 327 333 333 333 333 333 333 332 333 333 333 332 330 332 332 329 332 329 330 331 333 335 336 336 336 335 335 335 335 336 336 337 338 340 341 343 345 346 347 348 348 346 346 347 348 348 350 351 350 350 349 348 351 350 349 350 351 353 350 349 355 347 347 349 351 352 353 353 354 354 349 349 349 348 348 347 348 348 349 349 349 349 348 348 349 350 348 346 345 345 345 345 345 344 344 347
333 332 334 333 332 333 334 333 333 333 334 333 332 331 331 332 332 330 331 329 332 334 334 334 334 333 334 334 335 335 335 336 337 337 338 341 343 344 344 345 347 346 346 347 347 347 347 350 350 349 350 348 350 350 349 349 348 350 350 350 350 353 348 349 351 350 350 351 351 351 352 349 348 348 347 346 347 346 347 348 347 347 348 350 349 346 348 348 346 346 345 345 345 343 343 344 348
337 334 334 331 332 334 334 331 332 335 335 335 329 326 326 333 327 319 330 330 332 331 331 332 332 332 333 334 335 336 335 336 336 338 338 340 342 343 343 345 346 346 347 346 347 346 348 348 348 350 351 353 350 349 348 348 350 349 352 351 353 349 350 352 351 350 350 351 351 351 352 352 349 348 347 345 346 345 344 346 347 348 347 347 348 346 346 348 346 345 346 345 345 344 344 345 345
335 335 334 332 333 333 333 332 331 334 328 336 331 326 329 332 329 320 326 330 331 328 329 330 331 331 332 334 334 335 335 336 337 337 337 339 340 342 343 343 345 346 346 347 347 348 349 348 348 351 352 353 352 350 352 349 349 350 351 351 350 351 353 349 349 350 352 349 350 349 350 351 353 347 347 347 346 344 344 344 343 343 343 346 347 346 346 345 345 346 346 346 346 346 346 347 347
334 333 325 329 331 329 333 331 334 334 328 333 333 326 323 325 321 325 328 330 329 328 328 329 330 331 331 332 333 333 334 335 337 337 339 341 342 344 343 345 345 346 348 349 349 350 349 350 350 351 352 353 349 349 350 349 349 352 351 351 352 354 352 350 349 350 350 349 350 350 351 352 354 348 348 349 350 345 345 344 343 345 344 345 349 350 347 345 345 345 345 348 347 348 348 348 349
334 331 326 323 322 321 330 334 336 333 332 335 332 310 312 320 322 326 328 328 329 327 327 328 328 329 330 331 331 332 333 335 336 336 338 340 342 344 344 345 347 346 347 348 350 350 352 352 352 351 351 350 349 350 350 349 349 351 352 352 356 353 351 350 352 350 352 352 352 352 353 354 351 349 349 347 347 345 345 343 342 343 344 347 347 347 345 345 345 345 346 349 354 355 350 347 345
322 327 324 316 315 314 331 332 333 329 333 333 333 310 312 319 322 326 328 328 327 325 326 326 327 328 329 329 329 330 331 334 335 336 339 340 342 344 344 346 347 347 348 348 350 350 352 350 351 350 352 348 351 350 351 349 350 352 350 352 352 351 351 351 352 353 353 353 354 351 352 353 350 349 348 347 346 345 343 344 344 344 346 348 347 347 348 347 344 347 348 349 351 350 350 352 351
323 315 311 315 312 314 327 335 333 324 327 330 324 312 313 319 321 325 327 327 327 324 325 326 326 327 328 328 328 329 329 332 334 336 339 340 341 342 345 346 347 348 347 349 350 351 350 350 352 348 350 347 349 350 348 348 351 349 350 354 350 351 351 351 352 353 354 353 353 351 352 354 350 349 348 346 345 344 344 344 344 345 348 349 347 346 348 347 346 348 349 350 348 349 355 350 348
318 311 309 311 312 315 320 327 327 328 326 328 324 313 317 318 322 325 327 326 326 324 324 325 326 326 327 326 327 327 326 329 332 335 337 339 340 343 346 347 347 348 349 349 350 350 349 350 351 348 348 346 347 350 347 347 350 348 349 351 350 351 350 350 352 354 354 354 353 352 352 354 349 350 349 347 345 344 344 344 347 347 349 348 345 345 345 349 346 349 348 350 349 347 351 351 350
310 314 310 314 313 315 312 324 327 327 325 320 328 319 318 320 322 323 325 326 325 323 323 324 325 326 326 326 326 324 324 328 329 334 336 338 340 343 346 349 348 349 350 350 350 349 349 349 349 348 348 348 348 349 347 347 349 348 348 348 353 350 350 351 352 354 353 353 353 352 352 353 351 348 348 347 345 345 345 345 346 347 348 346 345 345 345 347 347 348 349 350 352 351 350 349 349
310 308 309 310 316 317 316 316 322 325 325 321 323 322 322 322 324 323 325 326 324 323 323 324 325 325 324 324 324 323 324 327 329 333 335 338 341 343 345 347 348 349 350 350 350 349 349 348 349 351 349 348 349 349 348 349 348 347 347 348 349 348 348 350 351 352 352 353 353 352 353 354 353 348 349 349 346 347 345 346 345 347 349 347 345 346 346 350 352 350 350 352 356 355 353 351 350
314 314 313 313 313 314 315 321 324 326 322 320 320 318 321 323 325 327 329 328 322 323 323 324 324 324 323 324 323 323 324 327 330 333 336 340 342 343 345 346 347 348 349 349 349 348 347 347 347 350 349 349 349 349 349 347 347 347 345 345 344 348 346 351 350 352 353 353 355 353 352 351 351 349 347 347 346 346 344 345 346 347 347 346 345 345 345 347 348 349 352 354 356 354 352 346 345
318 316 315 314 314 315 322 323 325 328 322 321 322 322 323 321 323 328 331 331 325 321 321 322 322 321 322 322 322 323 324 325 329 334 337 340 342 344 345 345 346 347 347 347 346 346 346 346 347 347 347 349 349 347 346 344 343 343 343 343 342 344 345 347 349 350 352 354 356 354 352 351 350 350 350 348 347 351 346 346 345 346 347 347 346 346 347 348 351 354 357 356 358 349 346 344 341
317 314 314 313 315 313 320 321 325 326 322 318 323 321 322 322 325 329 329 329 323 320 320 321 321 321 322 322 321 322 324 325 332 334 337 340 342 343 343 343 347 344 345 346 345 345 345 346 347 346 347 348 348 347 347 345 344 344 343 342 342 343 345 347 345 348 352 356 357 355 353 351 349 349 350 349 349 345 344 346 345 345 347 344 347 350 351 360 358 353 353 349 349 351 345 346 344
316 313 313 312 312 318 322 323 325 325 323 316 320 318 318 323 326 329 329 330 330 331 322 322 321 321 321 322 321 322 323 327 333 334 337 339 341 342 342 343 344 345 345 346 346 345 345 346 346 347 347 348 347 348 346 345 345 347 345 343 343 342 346 349 347 350 355 354 357 357 355 350 348 350 351 353 348 346 346 347 345 345 345 347 347 347 351 353 354 352 352 352 348 347 350 352 348
314 311 310 309 315 313 308 321 323 324 321 316 319 316 318 323 323 326 329 335 333 334 332 323 323 321 321 322 322 322 323 329 332 333 336 338 340 341 342 342 343 344 346 346 346 345 346 346 346 347 347 347 346 348 351 346 347 347 346 345 345 345 343 349 349 352 352 354 355 357 355 351 350 351 352 356 354 348 347 347 347 345 345 347 345 349 352 352 353 351 351 354 348 342 346 345 353
314 314 312 310 315 315 313 317 323 323 324 323 320 314 313 317 317 320 326 336 336 335 331 326 325 324 324 324 324 323 325 330 332 333 335 337 338 340 341 343 344 344 345 346 346 346 346 346 347 348 348 347 346 354 351 347 351 345 345 345 347 345 345 345 346 347 350 353 354 355 355 355 354 354 355 358 357 348 348 348 346 346 345 346 349 354 352 354 354 353 353 352 351 345 341 342 344
310 315 314 315 318 317 320 322 320 316 314 320 317 305 306 314 317 319 321 327 328 332 329 324 325 325 323 323 322 323 328 333 333 334 335 337 339 340 341 343 343 344 345 347 348 347 348 348 348 348 348 347 347 352 350 349 350 343 341 340 339 338 338 340 342 344 346 350 352 355 357 358 358 355 356 360 358 352 349 349 348 347 347 351 357 355 354 351 352 352 354 352 353 351 342 342 341
304 309 318 316 319 319 320 318 317 310 308 315 322 306 301 312 314 318 320 323 325 328 329 325 326 326 324 323 323 323 328 332 334 335 336 336 338 339 340 342 344 344 345 348 348 348 349 349 349 349 348 348 349 353 350 351 345 343 341 341 340 339 338 340 343 346 347 349 353 353 354 356 357 358 357 359 357 354 352 352 352 351 353 355 361 351 348 350 352 353 360 353 354 354 343 341 344
299 310 318 319 319 318 319 318 315 314 319 320 321 316 304 304 312 319 320 321 322 323 326 328 327 327 326 323 322 323 329 333 333 334 335 337 338 339 340 342 344 345 346 348 348 349 349 349 349 349 350 351 350 354 350 350 345 343 341 340 342 339 340 340 343 346 348 352 350 352 353 353 354 356 356 357 358 357 357 355 356 355 355 355 364 351 348 350 358 359 361 358 357 354 345 344 343
299 310 319 318 320 320 320 317 314 315 313 308 314 318 305 303 311 319 321 317 319 321 324 327 329 329 329 323 323 324 328 333 334 334 335 337 338 339 341 342 345 346 347 347 348 349 350 350 351 350 350 351 351 354 353 350 349 344 341 341 343 342 342 343 346 348 347 352 348 349 349 350 352 354 356 357 356 358 363 356 355 358 356 355 367 356 355 357 357 355 354 353 352 354 356 351 346
312 324 324 323 322 320 317 312 312 310 307 304 310 315 303 301 309 315 320 318 317 320 323 326 329 329 329 327 324 325 327 333 335 336 337 338 339 340 342 344 345 346 348 349 349 350 350 351 351 351 350 351 352 353 354 351 349 349 342 341 341 340 345 343 343 344 343 345 346 346 346 347 350 352 354 355 355 355 358 359 357 357 356 358 363 352 353 356 356 355 358 355 353 350 352 355 351
323 320 317 314 313 312 313 312 310 306 298 301 312 316 310 299 309 313 314 316 319 321 322 325 329 330 331 330 325 325 326 332 334 336 337 338 340 341 342 343 344 346 348 348 349 350 350 351 351 350 351 352 354 354 353 352 350 347 343 343 342 341 343 342 341 340 341 343 343 344 345 348 349 352 354 355 355 355 355 361 359 357 358 363 363 354 353 356 358 357 358 358 356 352 353 352 351
321 316 312 312 308 310 309 307 308 297 294 304 312 314 313 300 304 314 319 323 324 323 322 324 327 330 330 331 327 325 326 330 335 336 337 338 339 340 342 342 344 346 347 348 349 349 350 351 351 350 351 352 353 354 353 352 351 347 345 345 343 344 344 343 341 341 341 342 343 344 345 346 346 351 351 353 353 356 356 355 360 357 358 357 357 357 356 356 356 358 355 354 353 353 357 355 348
318 315 312 303 297 301 297 301 297 296 295 306 314 315 308 306 310 315 321 322 325 326 326 326 327 329 331 332 330 326 326 330 334 336 337 338 339 339 341 342 344 344 346 348 348 349 350 351 351 350 351 352 353 353 352 352 351 348 346 346 344 346 345 344 342 341 342 343 343 344 343 344 345 348 349 352 352 353 355 353 353 355 354 356 359 357 355 355 356 358 358 357 353 352 354 353 347
315 310 305 300 292 290 288 294 297 296 303 313 312 316 306 312 314 319 319 324 326 327 327 328 329 329 330 334 331 327 326 330 334 336 337 338 339 340 341 342 343 344 346 348 348 349 350 351 351 350 351 353 353 352 352 351 351 351 349 347 346 349 345 345 343 342 344 344 345 345 346 346 346 348 349 350 353 353 356 356 358 356 356 356 359 355 355 355 357 356 357 354 355 354 354 354 352
313 315 310 304 300 294 288 291 291 295 298 308 316 307 302 305 309 322 323 325 328 328 329 329 331 331 332 335 338 329 326 330 335 336 337 338 340 341 342 343 344 344 346 348 348 348 349 350 350 350 350 352 352 352 352 352 351 351 352 349 349 349 347 346 345 346 346 345 346 346 347 348 348 349 350 352 355 353 354 355 356 357 356 356 358 357 360 357 360 359 361 354 355 355 353 356 353
315 314 308 303 301 301 295 299 298 301 303 304 307 304 309 309 323 328 329 328 327 329 328 329 330 331 331 333 335 334 327 330 335 336 337 339 340 341 342 343 344 344 346 348 348 348 349 350 350 350 351 352 353 353 352 353 351 352 353 350 350 351 354 350 350 353 349 348 347 347 348 348 349 350 351 353 354 354 353 354 355 358 356 357 358 357 358 357 358 354 353 355 352 364 358 354 354
305 305 302 304 308 309 302 305 307 305 300 300 309 306 308 316 319 323 325 325 325 327 328 328 328 330 330 329 332 334 330 329 334 336 337 338 340 341 342 343 344 345 346 347 348 348 349 350 350 350 351 353 353 354 353 353 352 352 353 353 351 351 352 349 348 351 350 350 349 349 349 350 350 351 353 355 353 353 353 354 354 357 357 357 357 357 357 357 356 355 354 354 354 355 356 352 355
300 300 304 304 313 310 302 294 295 292 293 295 305 302 302 304 302 321 321 321 322 324 326 328 328 329 328 328 330 332 331 330 334 336 338 339 340 341 341 343 344 345 346 347 349 349 350 351 351 350 351 352 353 354 353 354 352 352 353 354 353 353 352 351 350 351 350 350 351 350 351 351 351 352 354 357 354 354 353 361 354 355 357 357 358 358 357 356 355 354 354 354 355 355 355 355 358
304 296 302 302 295 299 299 299 290 290 291 292 296 301 302 305 305 315 318 319 320 323 325 327 327 327 327 327 329 332 332 330 333 335 336 338 339 340 340 342 345 346 348 348 350 350 350 351 352 351 351 353 354 355 355 355 354 354 355 356 355 354 353 352 351 353 351 350 351 351 351 351 352 352 354 353 354 354 354 354 354 354 356 357 357 356 357 355 354 352 353 355 354 355 353 352 353
305 303 300 299 298 295 296 296 298 295 291 293 293 298 295 307 309 316 319 321 321 322 323 325 327 328 328 327 329 331 330 330 332 335 336 337 338 339 340 342 344 346 347 348 350 350 350 351 352 352 353 354 354 354 355 354 355 355 355 357 356 356 355 352 352 352 351 350 350 352 352 351 352 354 353 353 353 354 354 354 354 354 356 357 356 356 357 355 354 352 352 356 355 354 353 352 354
297 296 293 297 299 301 303 303 299 293 292 290 290 291 294 302 313 318 320 323 323 324 324 326 328 329 329 328 329 330 330 330 332 333 335 336 337 338 340 343 345 347 349 349 350 350 351 351 352 352 351 352 353 354 355 355 356 355 356 356 356 355 355 354 353 353 352 351 351 353 352 353 354 353 354 353 353 354 355 355 355 354 356 356 356 356 356 354 354 353 351 354 354 353 353 354 354
297 295 294 293 295 298 295 293 301 300 292 288 290 290 296 307 322 321 321 324 326 326 326 326 328 329 328 329 331 330 330 331 334 334 334 335 335 335 338 342 345 347 347 348 350 350 351 351 352 352 352 352 352 353 354 355 356 356 355 356 356 355 355 354 353 353 353 352 351 352 353 354 353 355 353 352 352 353 355 356 355 354 356 357 356 356 357 356 355 354 353 355 356 353 352 353 352
Wind_Speed
5 3 3 3 2 0 2 0 0 1 4 4 2 1 1 0 1 1 3 4 4 2 3 7 9 8 3 2 5 7 3 6 2 5 3 1 3 9 6 6 6 5 4 2 2 0 2 1 5 6 7 8 7 7 7 8 9 10 10 11 12 11 11 10 11 11 10 10 10 11 11 12 12 13 13 13 13 12 13 14 13 12 13 13 13 13 14 14 15 14 14 14 14 13 13 13 13
3 3 2 2 1 0 1 0 3 2 4 3 1 0 1 1 0 1 6 4 3 5 5 9 4 5 9 14 8 6 5 4 1 2 2 3 7 5 6 7 8 6 4 2 1 2 2 1 4 6 6 6 6 6 7 8 8 9 10 10 10 10 11 11 11 11 10 10 10 10 12 12 12 13 13 13 12 12 12 13 12 13 12 13 13 13 13 13 13 13 13 13 13 13 12 12 12
4 4 2 2 0 1 1 0 1 1 5 5 1 3 2 0 2 2 4 4 7 11 11 9 8 5 3 5 4 1 1 3 6 4 5 6 10 4 7 7 6 5 5 2 2 2 2 0 5 6 6 6 6 6 7 8 8 8 9 10 9 9 10 10 11 10 11 10 10 11 11 10 12 12 12 12 12 12 12 12 12 12 12 12 13 13 12 12 12 12 13 12 13 12 12 12 12
3 2 4 1 2 1 1 2 3 4 6 3 3 1 2 2 2 5 4 7 9 12 9 5 3 3 3 6 5 7 5 2 2 7 7 7 3 8 8 8 6 5 4 2 2 2 1 2 6 6 6 6 7 6 7 8 7 8 8 10 9 8 9 10 9 11 10 10 10 14 8 6 10 10 10 11 11 12 12 11 12 12 12 12 12 13 13 11 11 11 12 12 12 12 11 11 11
3 2 3 1 0 2 2 1 3 1 6 1 4 1 2 1 1 5 3 4 5 7 4 4 5 3 4 4 1 0 3 4 3 1 5 3 7 8 9 8 6 5 4 2 3 2 1 7 6 7 6 6 7 7 7 8 8 7 8 9 9 9 9 9 10 9 10 11 12 16 7 7 9 9 9 11 11 11 11 11 11 12 12 11 12 12 13 12 11 12 11 11 12 11 10 10 10
1 1 0 1 1 1 1 2 4 5 0 1 2 1 2 0 4 3 6 6 4 6 5 5 4 4 5 4 2 2 6 5 4 4 5 5 11 9 9 7 7 5 4 4 3 2 2 7 7 7 7 6 6 7 8 7 8 8 8 8 8 8 8 11 11 10 10 11 13 17 13 9 9 7 8 10 10 11 11 10 11 12 12 11 12 11 12 11 12 12 10 12 11 11 10 10 10
1 1 1 0 0 0 2 3 4 2 2 1 1 1 1 1 2 2 9 10 9 11 5 9 12 10 6 2 7 3 3 5 4 5 4 10 10 10 9 7 6 5 5 4 3 3 3 7 7 8 7 7 7 7 8 6 6 7 7 9 8 8 8 9 7 10 9 10 14 13 11 9 9 8 8 9 9 10 10 10 11 12 11 11 12 12 12 11 11 11 12 12 11 10 10 10 11
0 0 1 1 0 3 3 2 3 1 2 0 1 0 0 2 1 3 4 10 4 4 4 4 1 9 4 4 4 1 5 1 7 9 11 9 10 9 9 7 7 6 5 3 3 2 6 7 7 7 8 8 8 8 9 8 7 8 8 9 9 8 8 8 9 10 7 10 14 12 11 11 10 9 7 9 9 10 10 10 10 11 11 11 10 12 12 11 11 11 12 11 11 10 10 10 9
1 1 0 1 2 2 3 3 1 1 0 2 2 3 1 1 1 2 4 4 8 5 10 9 5 11 1 8 4 2 4 8 9 12 11 10 10 9 6 7 7 6 5 4 2 1 2 7 8 8 8 8 8 8 8 10 8 8 8 10 9 8 7 8 11 10 9 10 13 14 12 9 10 10 8 5 8 8 10 10 11 11 12 11 9 12 13 12 11 11 11 11 11 11 9 8 9
1 0 1 1 2 5 1 2 3 2 0 1 2 2 1 1 1 3 9 5 7 11 4 3 1 12 7 9 6 3 5 10 11 10 9 10 9 7 8 8 8 8 5 3 2 2 2 7 8 8 8 7 7 8 8 8 9 9 9 9 10 10 9 10 10 10 10 11 12 13 14 12 10 9 7 6 6 6 8 10 11 10 10 11 9 10 12 12 12 11 10 10 11 9 8 7 8
2 1 0 2 4 3 3 1 2 1 2 3 2 4 1 1 1 3 4 7 6 7 10 13 11 13 9 3 2 2 10 11 11 11 11 10 8 9 8 8 7 7 6 5 2 1 1 1 7 7 6 6 7 7 7 8 9 9 9 9 9 10 9 10 12 11 10 10 10 11 12 12 10 7 7 6 5 9 9 10 9 9 10 10 9 10 12 11 11 11 10 9 10 9 7 6 6
2 3 2 4 3 1 1 2 2 4 9 3 2 3 3 1 2 6 7 10 7 11 10 3 4 10 9 3 2 7 10 10 9 11 10 9 8 8 8 6 8 6 6 5 3 2 2 2 0 5 6 7 6 7 7 8 9 9 8 8 9 9 9 10 12 10 11 10 11 10 12 12 13 9 6 7 7 9 11 10 7 7 9 8 7 11 11 11 10 11 10 9 9 8 6 6 5
1 0 1 4 1 1 0 1 3 5 3 3 3 2 1 2 4 7 4 8 9 13 3 2 16 3 6 5 4 8 11 8 9 10 10 9 8 8 8 7 7 7 7 5 3 3 4 2 2 1 4 6 7 6 7 8 8 9 8 8 8 8 9 9 11 11 10 10 9 8 11 11 13 14 9 8 9 10 12 12 9 6 7 6 8 10 10 10 10 10 9 8 7 7 6 5 5
1 2 2 1 0 2 1 2 4 3 3 3 2 4 2 1 1 2 8 8 4 1 4 12 9 10 9 8 5 7 8 9 10 10 9 9 8 8 9 7 8 7 7 5 4 4 4 4 4 4 4 3 3 3 6 8 8 8 8 8 7 7 7 8 11 11 11 11 14 9 6 9 10 12 12 9 9 11 12 12 11 7 6 4 6 9 9 9 9 9 9 8 7 6 5 4 6
1 0 2 2 1 1 0 2 4 2 4 3 1 3 2 1 2 3 4 8 4 9 11 3 8 8 9 12 8 9 10 9 10 11 10 10 9 8 8 7 7 6 5 5 4 5 4 4 4 4 4 4 4 2 3 6 6 7 8 8 8 7 5 8 11 9 10 12 14 13 9 9 9 11 10 10 10 12 11 10 11 8 5 3 5 8 8 8 8 8 7 6 6 5 4 4 4
2 2 2 1 0 2 1 3 2 6 4 3 1 2 3 2 1 2 2 1 7 5 6 6 3 2 9 3 9 12 12 12 12 12 11 11 9 7 7 6 6 5 4 4 4 5 4 4 4 4 4 3 3 4 4 3 4 7 7 8 8 7 6 7 9 7 8 12 13 13 10 6 7 7 10 8 11 11 10 6 8 8 8 5 7 8 8 8 8 8 7 5 5 5 5 3 4
3 2 2 1 1 2 2 3 7 5 2 5 3 3 2 3 1 2 2 1 15 7 3 6 2 6 10 5 11 14 13 13 12 13 11 8 7 5 4 4 4 4 4 3 4 4 5 4 3 4 3 3 3 3 4 3 5 5 7 8 7 3 4 9 11 11 10 11 10 10 8 3 2 3 6 2 10 6 8 7 9 6 11 11 8 7 7 8 7 7 6 5 4 5 5 4 3
2 3 2 2 4 3 5 6 7 2 7 6 7 9 5 2 1 1 1 5 4 7 8 5 8 8 7 11 13 14 14 14 13 13 10 8 6 6 4 4 4 4 4 3 4 4 4 3 3 3 3 3 2 3 2 3 3 6 7 5 3 3 4 7 9 6 7 5 13 7 3 3 4 4 4 5 2 5 7 10 8 14 9 8 8 8 7 7 7 6 5 4 4 4 6 3 3
5 2 3 6 4 6 6 4 6 5 2 8 9 9 6 2 6 1 4 7 7 9 7 9 10 12 12 12 14 14 14 14 13 12 12 10 8 8 6 4 4 5 4 3 3 4 3 3 2 3 3 2 3 3 3 4 4 5 6 6 3 5 5 5 6 8 4 5 4 5 5 4 3 4 4 6 3 6 5 13 16 7 7 7 8 8 7 6 5 6 6 5 6 7 4 3 3
4 3 4 6 5 3 3 4 9 6 10 10 8 7 7 1 2 2 6 9 7 10 10 10 13 14 14 13 14 14 13 13 11 11 11 10 9 8 7 6 5 4 4 3 4 3 3 3 2 2 2 2 3 3 4 4 4 4 5 5 4 3 3 4 5 6 5 4 5 4 5 5 6 4 7 8 4 2 9 12 7 7 8 8 8 6 7 7 8 8 8 9 6 4 3 4 3
1 2 4 3 1 0 2 3 11 10 10 12 8 5 7 2 3 1 6 9 7 7 12 17 16 16 15 14 14 13 13 12 10 10 9 9 8 7 7 6 6 5 4 4 3 3 3 3 2 2 2 2 2 4 4 4 3 4 4 4 4 4 4 4 3 4 4 4 3 4 4 4 6 6 5 3 2 3 3 3 4 4 4 5 7 4 4 4 5 5 5 5 4 4 4 3 2
5 2 1 2 1 3 1 2 8 8 7 8 8 10 8 4 3 1 5 11 11 11 12 13 18 18 17 17 14 12 12 11 11 10 10 10 10 8 6 4 4 4 4 4 4 4 4 3 3 2 2 2 2 3 3 4 4 4 4 4 5 4 4 3 3 3 4 3 3 4 4 5 6 6 5 3 3 3 3 3 3 3 4 4 4 4 4 4 4 3 4 4 4 3 3 3 2
4 1 2 4 1 2 1 5 8 15 10 11 11 5 5 3 2 2 4 6 3 6 13 15 15 17 16 14 14 13 13 12 12 11 11 10 9 9 8 6 6 6 4 4 4 4 5 4 3 3 4 3 3 2 2 3 3 3 4 4 5 3 3 4 4 3 3 3 3 3 4 4 5 4 4 3 3 3 3 3 3 3 3 3 4 3 3 3 2 3 3 3 3 3 3 2 2
4 1 1 5 3 5 3 4 4 11 15 13 6 5 5 6 4 2 2 3 7 12 14 15 14 15 16 15 13 15 14 13 13 12 11 10 11 11 10 9 6 5 5 4 4 4 5 5 4 4 4 4 3 2 3 3 2 3 4 4 4 4 4 4 4 3 3 3 3 3 3 3 4 4 4 4 2 3 3 4 3 3 3 3 2 2 3 3 3 3 3 3 4 3 3 3 2
3 1 1 3 4 4 6 7 10 9 7 8 8 7 5 3 2 2 2 5 14 14 15 15 16 15 13 13 13 14 13 12 12 11 9 7 8 8 7 6 7 6 6 6 5 5 5 5 5 4 3 4 2 3 4 3 2 2 3 4 4 5 3 4 3 3 3 3 3 3 3 4 4 4 3 2 2 3 3 3 2 2 2 2 1 2 2 3 3 4 3 3 3 3 4 4 4
1 2 4 3 4 5 4 7 10 6 5 7 8 4 3 3 5 2 4 9 15 16 15 16 16 15 14 14 14 13 13 13 13 12 11 9 8 10 8 8 8 8 7 7 6 5 5 5 5 5 4 4 3 3 3 3 2 3 3 4 3 4 4 3 3 3 3 4 3 2 2 2 3 3 2 2 3 2 1 2 2 1 1 1 2 2 2 2 3 3 3 3 3 4 4 4 3
7 8 5 5 3 3 3 4 3 2 2 5 6 8 4 3 5 2 4 14 17 16 16 15 16 16 15 13 13 12 13 13 13 10 9 9 9 9 9 8 9 7 7 7 6 5 5 6 5 5 5 6 3 4 3 2 2 3 3 3 4 4 4 3 3 3 3 2 2 2 2 2 2 2 2 2 2 2 1 1 1 0 0 1 2 2 2 2 2 2 3 4 4 4 5 4 3
9 10 8 6 4 6 2 2 3 7 4 2 3 5 3 5 0 1 10 14 17 17 15 15 14 14 14 14 13 11 11 10 9 9 11 12 9 9 9 9 8 8 8 8 6 5 6 6 6 5 5 5 5 4 4 3 3 2 2 4 4 4 4 3 3 3 3 3 2 2 2 2 2 2 2 2 2 2 1 1 0 1 1 2 1 2 2 2 2 3 3 3 4 4 5 5 3
11 6 8 1 3 4 3 2 2 5 4 2 2 2 3 5 4 10 11 15 16 17 16 15 14 13 13 13 12 10 10 9 8 8 10 10 9 8 10 8 9 9 6 7 7 7 8 6 6 5 5 5 5 5 4 4 3 2 3 4 4 4 4 3 3 2 3 2 2 1 1 0 1 2 2 2 1 1 1 1 1 1 1 1 1 2 2 2 3 4 4 2 4 4 4 5 3
4 4 6 4 3 2 3 1 2 6 3 6 5 6 5 6 9 9 13 15 16 16 15 13 12 12 12 11 10 9 8 8 9 9 9 8 10 10 10 9 9 8 7 5 7 8 6 5 4 4 5 6 5 4 4 4 3 3 3 4 4 4 4 4 3 3 3 3 2 2 1 2 2 2 2 2 1 1 1 1 1 1 1 2 2 2 2 2 3 3 3 4 4 3 4 5 4
3 1 4 3 6 3 2 2 3 5 3 8 1 6 3 6 10 11 13 15 17 15 14 12 11 11 11 10 9 9 9 10 11 10 10 10 9 9 10 10 10 9 7 7 8 8 7 6 5 4 6 5 6 5 5 4 3 3 4 4 4 4 4 4 4 3 3 3 2 1 2 3 3 3 2 3 2 1 1 0 1 2 2 2 3 3 3 2 2 3 2 4 4 3 3 5 3
1 3 1 2 2 1 3 3 5 3 6 11 8 5 3 9 10 11 12 14 14 15 13 12 11 11 11 9 9 10 8 10 10 10 11 11 10 9 11 11 10 10 10 9 8 7 7 6 5 5 5 5 5 5 4 4 4 3 4 4 4 3 4 4 4 4 3 2 2 2 2 3 3 3 3 2 3 1 1 1 1 2 2 3 3 3 2 3 2 3 2 1 4 5 4 5 1
2 2 2 4 1 1 2 9 8 6 1 8 12 1 2 3 9 10 11 14 14 14 13 11 13 12 11 9 8 8 6 7 8 10 11 10 9 9 10 11 10 11 10 10 9 8 7 7 7 6 6 6 5 5 4 3 3 4 4 4 4 3 4 4 3 3 4 3 3 3 2 2 2 3 3 2 3 2 2 1 0 1 3 3 3 3 2 2 1 4 4 1 1 3 5 6 5
2 2 3 2 4 3 2 2 2 5 6 2 7 5 5 5 12 11 10 14 13 13 13 13 12 10 9 8 8 6 7 8 9 10 11 10 9 10 9 10 11 10 9 10 9 9 9 7 6 6 5 5 4 5 5 4 3 3 4 4 3 4 4 3 3 4 4 4 3 3 2 2 2 2 2 2 2 2 2 1 0 2 2 2 2 3 3 2 1 1 4 4 1 2 4 5 4
7 2 4 1 1 1 3 6 4 3 7 6 3 7 1 11 2 6 6 12 13 14 13 13 13 10 9 8 7 7 8 10 10 11 12 10 10 9 9 8 10 9 8 9 9 7 7 6 5 6 6 5 5 4 4 4 3 3 2 3 4 3 3 3 3 4 4 4 3 3 3 2 2 2 2 2 2 2 2 1 1 0 0 2 2 3 2 3 2 1 2 5 4 3 5 4 3
7 8 4 6 7 5 5 4 1 4 6 5 2 6 4 3 4 4 6 3 10 13 12 11 11 10 9 8 7 7 9 10 10 12 12 10 10 11 9 8 8 8 8 8 8 7 6 6 5 5 5 5 4 3 4 4 4 4 4 3 3 3 3 3 3 4 4 4 3 3 2 2 2 2 2 2 2 1 2 1 0 0 1 2 3 3 4 4 4 5 5 3 5 3 1 2 1
2 1 4 4 5 3 2 2 3 1 3 2 4 5 4 1 2 3 1 3 6 8 12 10 10 9 9 9 8 9 10 10 10 13 12 12 12 10 9 8 8 8 7 8 8 7 7 7 7 6 5 5 5 5 4 5 4 4 3 5 4 5 4 3 4 4 4 4 4 3 3 3 2 2 2 2 3 2 2 1 0 0 1 0 1 2 2 4 3 2 3 3 2 3 3 3 3
5 4 5 4 2 5 1 3 5 7 4 3 2 5 3 3 4 4 1 1 8 12 11 12 10 10 10 10 9 10 8 4 9 8 9 10 10 11 10 9 9 11 8 8 9 9 7 7 8 6 5 5 6 6 5 5 3 5 4 5 3 4 4 5 4 4 4 5 5 4 3 3 3 3 3 2 2 3 3 2 1 1 0 1 1 2 3 3 3 3 2 3 0 1 1 2 3
6 6 5 6 1 3 6 6 6 3 1 4 4 7 6 5 5 4 2 2 2 4 11 13 11 10 9 10 10 10 6 8 10 11 11 10 12 12 10 9 9 10 11 11 9 9 8 7 6 5 5 6 6 6 5 5 3 4 4 3 5 3 2 4 5 4 4 5 5 5 5 3 3 3 3 4 4 2 2 1 2 2 1 1 2 3 3 2 1 2 2 1 3 0 2 1 4
5 5 7 8 7 8 4 3 9 2 2 4 4 8 3 2 4 7 5 3 2 2 4 11 10 12 11 13 12 10 9 11 12 11 12 11 11 11 10 9 9 9 8 8 9 9 8 7 6 6 6 6 6 5 6 5 5 5 5 5 5 4 4 3 3 3 4 5 5 5 4 4 3 3 3 3 2 2 3 4 3 2 1 1 2 3 3 2 2 2 2 2 0 2 3 3 3
3 8 7 4 9 5 3 8 7 3 6 5 6 2 1 4 5 5 4 3 1 2 1 6 5 6 11 10 9 11 13 12 12 11 12 12 11 11 12 11 10 10 10 10 10 9 7 9 8 7 6 6 5 5 6 5 4 3 4 3 3 3 3 4 3 3 4 4 4 4 6 5 4 2 1 2 3 3 3 3 3 2 2 2 3 4 3 1 1 0 1 3 4 1 2 2 2
3 7 10 10 13 8 11 13 11 4 1 5 11 3 5 6 11 11 4 2 3 1 2 10 8 6 6 8 9 7 12 14 14 14 13 14 13 10 8 10 11 10 10 10 10 10 8 8 8 7 6 6 6 5 5 5 5 6 6 6 5 4 4 5 6 6 4 4 5 4 4 4 4 2 2 4 4 4 5 4 3 3 3 4 5 4 0 1 0 1 1 2 3 2 2 5 3
2 6 9 5 11 9 15 14 10 7 6 8 6 10 3 3 10 10 5 5 5 2 3 8 9 8 8 10 9 8 12 12 13 13 12 12 11 12 11 11 11 11 10 9 9 8 9 9 8 8 7 6 6 5 4 4 4 4 7 7 7 7 6 4 4 5 6 5 4 4 4 3 3 6 7 6 5 4 4 4 4 4 4 3 2 1 1 1 0 1 0 3 2 1 2 4 4
6 4 9 9 11 13 14 15 6 3 4 3 1 2 4 3 10 9 7 6 5 5 6 6 8 8 9 10 9 8 12 14 13 14 14 14 13 13 14 13 11 12 10 9 9 8 10 10 9 8 6 6 5 4 4 4 5 4 4 4 5 6 6 6 4 5 4 4 5 5 4 4 3 2 3 5 5 4 4 3 3 3 3 2 0 0 1 1 1 1 2 2 2 3 3 5 3
6 1 7 7 10 8 9 6 3 3 5 3 6 2 0 3 3 5 8 8 7 9 10 8 7 8 8 11 10 9 12 15 16 14 14 14 14 13 12 12 11 10 10 10 10 9 9 9 8 7 7 6 5 4 4 4 5 5 5 5 4 3 4 5 4 3 4 3 5 4 4 4 2 1 2 3 4 4 3 3 1 0 0 1 1 2 2 1 1 1 2 3 3 3 2 1 3
3 17 14 12 13 11 8 7 5 3 3 4 9 7 2 2 2 5 5 9 13 12 12 10 9 10 8 10 9 9 10 12 15 17 16 15 14 14 13 12 11 11 10 10 9 9 9 8 8 8 7 6 5 4 4 4 5 5 5 4 4 4 3 3 3 4 3 3 4 4 3 2 2 1 1 2 3 3 1 1 0 0 1 1 1 1 1 0 0 1 0 2 2 3 2 1 3
10 16 17 12 10 7 6 7 7 3 2 4 7 8 2 1 5 10 12 15 15 9 6 7 6 7 6 7 10 9 10 12 12 14 15 15 14 13 11 12 11 9 8 10 9 9 9 9 9 9 8 6 5 5 5 6 5 5 5 5 5 5 5 5 4 3 2 1 3 3 3 3 2 2 1 2 3 2 2 1 1 1 1 1 0 1 0 0 1 1 2 2 1 3 3 3 3
13 3 8 11 7 8 8 6 5 2 4 2 1 10 3 3 3 7 12 8 12 13 13 13 11 10 9 6 7 10 10 12 13 13 14 13 11 10 10 10 10 10 9 9 9 9 9 9 9 9 7 6 6 6 6 5 5 5 5 6 6 6 6 6 6 6 4 4 4 4 3 1 2 1 2 3 3 2 1 1 0 0 1 1 1 1 1 0 1 1 1 1 1 1 2 2 2
9 10 6 9 1 3 3 1 3 3 3 1 1 5 1 11 8 2 8 9 11 13 12 15 14 12 9 7 8 8 9 13 13 13 13 12 13 12 11 10 9 10 11 11 11 10 9 9 10 10 8 7 7 6 7 6 5 6 6 7 6 6 6 6 6 5 4 5 4 3 3 4 3 2 3 4 3 3 1 1 1 2 2 1 1 1 2 0 0 0 0 1 1 2 2 1 3
11 10 8 8 4 2 3 2 1 3 4 2 2 6 5 2 6 9 9 12 9 12 11 10 12 13 12 7 5 7 9 13 14 14 13 14 13 13 13 12 12 11 11 12 11 10 9 9 9 10 10 7 6 6 7 6 6 6 6 6 6 6 6 6 6 6 5 5 5 4 4 5 5 4 3 3 4 2 1 1 1 2 1 1 1 1 1 0 0 1 1 0 1 0 1 1 2
4 1 9 8 8 6 4 5 5 6 3 1 6 8 5 4 4 0 5 6 10 7 10 9 11 12 13 9 4 4 7 11 14 14 14 15 15 14 13 13 12 11 12 12 11 10 10 9 10 10 9 8 7 7 6 7 6 5 4 5 6 5 6 5 6 6 6 6 5 4 4 3 4 3 4 3 2 1 2 1 1 2 2 1 1 1 0 0 0 0 0 0 0 0 1 1 3
2 5 5 5 7 5 5 5 5 5 4 3 4 4 2 4 1 1 2 2 7 8 9 10 12 10 12 10 8 5 6 11 13 14 15 16 16 14 13 13 12 11 12 11 12 11 11 10 11 11 11 10 9 8 7 7 6 5 4 5 6 5 4 5 4 4 5 6 6 6 6 5 5 4 3 3 3 3 3 3 2 2 2 2 1 2 1 1 0 1 1 1 2 1 2 2 1
3 6 7 8 4 7 6 4 3 5 5 2 2 5 4 4 2 3 0 5 8 9 8 9 12 13 14 15 12 8 6 10 12 14 14 15 14 14 14 14 12 12 11 12 12 12 12 11 11 11 10 9 9 9 8 7 6 5 5 5 5 5 5 6 6 6 6 5 5 6 6 6 5 4 4 3 4 3 3 3 3 3 3 3 2 2 2 1 1 1 1 0 2 2 1 2 1
6 6 10 1 2 5 6 3 1 3 2 2 4 5 3 0 3 0 1 7 7 10 11 12 12 12 15 16 15 12 9 10 13 15 15 16 15 15 13 13 14 14 14 13 13 12 11 11 12 12 11 11 10 9 8 7 7 7 6 5 5 6 6 6 6 6 6 6 5 5 4 4 5 5 4 4 4 4 4 4 4 4 3 3 3 3 2 2 1 1 2 2 2 2 3 2 2
10 6 5 4 1 1 2 5 1 2 2 2 2 2 4 6 5 3 6 8 9 10 11 10 11 13 15 15 16 13 9 9 10 12 13 13 13 14 14 14 14 14 14 14 13 12 11 10 11 12 13 12 11 9 8 7 7 6 6 6 6 6 6 6 5 5 5 6 6 6 6 6 5 4 4 4 4 4 4 4 4 4 3 4 3 3 3 2 2 2 2 3 2 1 2 4 4
3 2 2 0 4 4 4 4 4 5 1 1 2 1 4 7 5 11 11 11 10 9 9 12 15 15 15 14 14 13 10 11 11 11 11 11 14 14 14 14 14 13 12 11 12 11 12 11 11 10 9 9 9 9 8 8 8 7 7 5 5 5 5 6 6 6 6 6 6 6 5 5 6 4 4 4 4 4 4 5 5 5 4 4 3 3 3 3 2 3 3 3 3 1 3 4 4
5 2 2 1 1 2 5 1 1 3 5 3 1 2 5 7 5 8 10 11 11 12 12 10 11 12 12 12 13 12 11 10 11 10 10 8 5 4 9 13 14 13 12 11 11 12 12 10 11 11 11 11 11 10 9 8 7 8 7 7 7 6 6 6 6 6 6 6 5 5 5 5 3 4 3 3 4 4 4 5 5 5 5 4 4 4 3 3 3 3 3 3 3 2 3 4 3
5 6 5 6 2 2 2 3 1 2 4 2 3 5 6 6 1 5 7 8 9 10 12 11 10 10 9 7 8 9 10 9 10 10 10 8 7 8 5 1 4 10 11 11 11 11 10 11 11 11 10 10 10 10 9 8 7 7 8 8 7 6 6 5 6 6 6 6 5 5 4 2 3 1 3 7 7 7 3 5 5 5 5 5 4 5 4 3 3 3 3 3 4 3 3 3 3
Wind_Direction
168 152 126 156 105 199 196 225 97 331 60 82 94 16 171 145 215 106 164 112 141 215 197 85 135 154 175 177 121 106 18 128 189 133 208 201 130 140 157 142 135 138 153 173 178 256 116 110 129 115 107 98 106 113 110 107 105 106 109 108 110 115 116 118 116 111 111 114 118 119 124 125 121 119 120 119 117 111 108 103 107 107 109 110 110 108 105 103 105 109 103 98 96 93 89 88 86
137 129 175 116 148 225 320 180 102 12 51 79 23 360 272 318 354 211 154 161 192 149 128 127 113 73 98 107 138 115 36 27 319 144 48 112 125 120 150 143 149 153 149 145 125 88 73 75 119 100 101 109 116 118 114 109 106 108 109 109 109 111 112 118 119 120 121 123 122 123 124 124 120 122 122 119 117 114 109 114 121 116 109 109 106 105 103 101 106 103 102 101 98 93 91 91 89
159 152 145 81 349 215 260 108 93 92 113 108 229 197 298 33 87 102 148 127 112 110 109 105 104 85 91 107 75 41 208 20 77 87 98 152 120 182 152 149 152 144 139 126 102 82 70 135 118 115 123 128 124 125 117 111 110 111 111 108 106 112 116 120 130 129 123 126 126 120 113 123 121 123 121 120 121 118 114 109 109 111 113 111 107 103 103 104 104 103 101 100 98 95 93 93 93
149 188 130 186 346 203 38 21 85 121 112 172 109 265 24 32 94 121 103 108 115 115 118 107 65 297 119 72 107 84 63 61 357 133 131 179 180 156 150 152 147 131 124 113 95 91 76 143 125 132 140 135 132 127 117 113 115 113 117 118 121 125 125 122 120 122 125 123 125 105 90 104 113 109 114 118 119 117 113 113 111 111 109 109 106 103 99 99 103 104 99 99 96 91 94 94 91
167 208 169 158 307 4 84 139 133 89 106 184 141 293 17 3 100 112 103 89 84 105 89 121 89 18 102 106 202 123 184 93 118 66 115 108 126 148 143 144 137 130 131 120 99 96 134 139 139 145 148 147 144 137 131 133 129 129 122 116 119 119 120 117 120 129 128 126 114 96 103 98 102 100 116 120 121 116 109 109 113 112 108 110 109 109 113 112 109 102 104 102 96 92 92 93 90
100 58 225 118 259 222 39 40 41 59 14 180 67 288 307 220 92 102 95 72 53 70 101 81 127 136 56 359 14 73 119 144 159 107 127 144 144 145 140 136 129 129 115 89 93 97 132 152 154 154 153 157 153 147 140 141 136 132 125 122 122 124 126 127 140 138 133 123 109 121 147 135 118 118 121 124 123 116 108 111 111 110 113 112 110 110 107 106 105 105 106 100 99 98 94 91 92
149 57 343 28 44 94 111 92 78 80 312 115 170 246 276 52 39 120 102 76 50 67 45 100 111 105 74 104 69 52 82 109 118 137 136 140 139 137 135 130 128 114 106 98 94 118 154 160 160 163 165 166 160 148 135 133 131 133 131 125 127 126 130 125 118 120 118 119 113 113 129 135 134 132 127 129 129 116 111 111 110 111 108 108 111 110 108 106 108 105 101 98 95 97 95 92 90
125 128 315 105 318 56 26 67 79 25 278 101 209 207 306 349 1 115 116 114 149 104 106 120 130 92 66 38 101 308 109 36 99 106 122 133 132 132 135 130 114 113 107 100 107 139 171 159 162 165 169 164 159 151 139 140 143 137 130 127 128 127 135 136 127 111 114 119 112 120 143 140 135 123 131 135 129 121 120 120 118 116 113 110 112 113 109 108 105 100 98 96 92 90 93 95 91
3 96 116 65 37 35 59 55 90 334 274 359 321 217 120 136 64 158 88 97 97 85 104 118 149 86 238 89 72 177 68 104 108 122 127 128 131 140 128 119 118 114 107 100 106 99 163 162 156 159 160 163 158 149 144 142 139 135 131 129 126 137 138 127 117 119 121 116 124 132 137 139 137 135 134 119 120 122 124 120 118 117 113 109 116 115 112 108 103 100 99 96 83 74 74 83 93
347 138 286 125 137 56 30 1 60 288 323 278 284 313 16 360 5 58 119 94 115 118 114 46 74 109 126 96 101 86 125 120 126 123 126 130 138 128 115 112 117 119 115 119 122 155 197 159 154 156 162 160 155 142 139 136 129 130 133 128 136 140 142 134 125 124 125 123 128 133 141 147 139 134 134 138 125 126 113 108 103 112 119 119 119 116 110 108 108 106 104 97 92 85 74 82 80
307 40 108 61 34 66 84 38 58 351 344 322 336 339 31 103 115 62 96 115 121 109 98 102 78 114 110 89 51 102 120 131 136 136 139 139 128 123 115 112 116 122 127 128 129 125 171 176 159 156 158 155 144 131 129 128 126 126 134 136 138 136 134 134 126 120 128 130 131 134 130 134 124 119 141 133 134 120 112 111 124 126 119 126 130 119 109 109 109 108 106 103 97 92 90 84 90
354 359 11 85 57 119 205 108 42 27 330 342 318 352 340 95 83 110 121 119 121 117 129 140 133 123 96 105 108 132 134 143 142 138 142 128 123 117 114 113 119 121 121 124 117 76 59 68 32 159 154 147 129 136 131 132 129 129 131 133 135 132 130 132 129 128 133 139 137 133 129 135 134 143 155 132 104 108 97 90 104 126 127 116 123 115 112 113 113 113 114 110 109 112 104 86 78
204 87 50 80 216 64 304 76 49 105 307 301 294 346 7 42 92 125 118 116 136 135 159 146 133 136 110 118 135 130 147 156 144 143 131 128 120 115 114 117 119 124 135 125 106 89 77 56 24 54 150 137 142 147 138 129 130 130 131 128 131 132 127 126 130 131 139 133 113 117 136 141 144 143 136 117 106 109 108 120 127 123 108 123 129 112 115 116 114 115 115 118 117 111 103 93 91
157 173 77 85 356 117 76 61 60 96 263 271 293 318 323 58 66 137 125 118 150 93 123 133 123 118 94 107 141 156 159 153 144 129 127 119 115 117 121 123 127 127 131 117 101 85 64 48 41 38 54 45 71 107 131 128 125 125 129 128 126 126 129 133 129 140 142 146 130 152 145 145 139 128 122 125 113 116 122 123 125 128 134 135 130 117 116 114 112 112 115 121 118 110 97 105 108
220 90 77 119 71 46 263 121 140 111 275 252 306 354 355 29 94 56 123 120 50 131 118 64 130 107 177 158 167 171 162 142 126 126 120 119 118 120 122 120 115 118 122 116 91 79 67 59 47 43 53 54 63 40 10 108 130 131 130 128 120 120 137 140 133 140 153 141 133 138 165 142 137 127 117 116 118 120 122 122 129 135 132 144 138 119 114 109 103 99 105 108 112 107 101 88 79
163 74 79 86 304 126 253 111 161 121 249 209 45 352 318 335 67 97 243 187 130 136 143 129 217 118 158 163 158 150 136 133 130 124 122 122 118 114 115 117 116 114 105 108 89 75 78 75 54 52 52 42 46 31 47 45 114 128 119 108 119 131 146 129 123 148 155 132 132 138 139 130 130 121 121 116 122 124 124 122 128 137 135 199 151 118 108 100 95 93 95 99 96 102 109 107 105
69 75 335 38 258 168 227 146 147 189 169 202 98 71 7 178 324 257 269 228 135 166 80 138 96 123 148 131 134 126 130 130 128 128 126 123 122 119 112 114 123 114 122 104 87 95 95 88 77 80 67 56 45 47 45 47 105 98 99 106 112 125 148 146 148 162 142 130 118 130 129 90 67 83 90 124 128 124 132 132 98 156 172 172 119 106 98 88 84 85 82 81 82 92 105 99 97
112 196 155 231 200 176 201 167 186 177 145 192 152 180 171 239 163 286 71 107 110 120 119 99 98 91 107 116 120 127 132 132 136 136 136 132 131 131 133 139 139 138 129 116 95 103 102 92 97 93 82 79 61 40 54 80 67 91 94 89 107 160 154 143 138 128 120 104 126 126 105 126 106 108 127 118 63 128 129 105 148 199 152 108 98 84 83 82 65 62 60 55 59 77 67 52 18
167 184 148 230 186 232 165 162 141 118 248 172 178 176 165 186 142 268 127 148 136 120 118 119 100 105 109 117 128 134 139 139 144 144 145 141 143 143 144 149 146 132 143 130 111 114 109 108 103 95 94 82 66 66 79 81 77 73 91 109 121 138 148 119 105 110 73 101 100 131 119 135 120 124 151 118 108 144 129 161 193 151 98 93 77 63 62 52 38 34 34 33 42 38 35 30 21
214 126 211 244 217 238 197 135 125 191 160 169 183 186 157 156 68 325 150 151 143 142 134 125 129 134 136 133 138 144 145 146 150 151 148 144 145 144 149 158 154 156 151 146 140 116 120 115 102 107 111 65 83 80 70 72 69 73 88 100 105 98 67 76 80 92 108 128 131 126 136 130 123 108 87 102 152 169 172 174 141 78 64 65 52 41 26 17 24 18 12 23 33 25 21 22 12
183 127 214 234 230 244 280 131 146 176 166 168 173 159 159 117 108 52 153 131 159 158 160 149 149 146 144 144 144 150 154 155 156 155 148 145 147 151 159 167 166 149 147 122 135 140 129 130 119 123 89 94 98 92 87 78 72 78 77 82 86 74 80 71 75 93 111 113 113 99 91 92 90 82 92 158 185 110 81 45 38 44 46 40 36 38 33 9 19 13 8 12 18 9 3 354 358
116 193 146 312 344 243 348 189 143 160 193 138 143 160 170 110 93 105 170 162 175 173 163 151 146 146 148 149 151 152 159 161 160 160 160 158 158 152 151 143 133 124 136 149 156 144 145 152 149 140 119 125 115 101 115 117 93 91 93 90 82 71 80 80 67 75 82 77 75 83 81 91 95 120 139 129 89 102 79 55 43 42 47 45 35 39 34 21 7 9 6 0 350 351 341 330 332
196 47 68 31 42 251 226 242 194 167 167 144 161 160 81 118 103 169 181 188 178 148 148 148 148 146 146 146 150 153 158 164 166 168 166 165 157 155 157 156 152 149 158 163 142 147 151 152 155 140 136 130 119 111 93 97 98 106 102 107 102 98 97 90 80 78 70 69 73 82 91 93 98 101 100 90 90 78 69 49 41 34 43 35 29 34 24 6 360 1 2 347 332 341 333 329 317
102 210 94 35 20 51 32 49 125 160 147 155 143 110 123 145 128 162 156 198 148 135 142 143 142 142 147 152 158 154 161 168 172 173 171 167 164 164 160 158 153 139 147 159 152 147 156 161 155 146 136 137 133 110 101 116 122 122 138 116 108 130 112 100 94 83 76 77 81 70 80 79 101 97 89 86 78 67 56 55 50 41 38 38 34 35 8 340 346 7 360 346 347 339 325 314 294
101 115 116 140 42 46 61 68 81 99 76 105 116 121 123 131 66 137 242 156 132 136 140 142 144 148 153 154 156 156 161 170 172 172 172 165 166 156 149 143 147 151 158 171 159 155 162 164 160 145 147 142 142 121 119 126 129 112 112 117 133 136 110 119 116 94 95 98 83 88 90 88 71 82 86 89 74 65 62 71 60 51 38 28 34 31 18 337 350 3 358 343 327 320 323 324 322
122 122 93 64 87 80 96 80 100 84 92 117 102 75 359 149 95 56 266 148 137 140 143 146 148 152 156 159 159 160 167 174 173 173 175 160 157 154 157 156 153 165 171 169 164 164 159 163 166 156 157 155 147 123 123 132 141 114 117 138 149 122 132 131 117 110 119 117 114 105 96 98 100 103 108 72 82 70 70 85 76 53 44 30 30 10 358 357 346 343 346 335 328 327 322 308 323
111 101 98 111 134 108 29 96 93 104 82 162 123 134 181 232 119 158 187 150 140 141 146 151 150 153 158 159 162 167 172 176 177 169 153 156 157 164 163 156 161 165 163 172 170 160 165 167 171 162 158 163 141 142 140 145 144 126 122 143 121 130 135 130 116 116 121 124 129 117 114 119 115 105 96 78 76 80 61 68 76 65 342 7 8 1 360 341 330 321 321 317 318 317 301 289 292
108 120 94 69 76 79 90 58 122 110 46 357 106 172 159 168 217 283 157 151 143 141 147 152 152 154 158 161 165 174 177 180 172 164 151 161 168 167 165 163 163 161 169 171 169 154 162 175 170 161 154 157 158 153 159 150 151 137 130 130 130 135 135 129 125 135 138 141 124 127 131 126 132 112 113 100 109 119 132 111 71 24 5 332 353 17 340 322 315 310 296 290 283 287 296 297 275
141 143 94 38 29 35 27 5 15 109 117 311 109 102 132 155 182 189 163 146 143 144 148 154 156 156 160 164 169 177 180 175 172 174 166 167 163 164 164 168 161 162 169 163 157 162 168 171 165 160 149 155 156 163 159 153 137 134 135 138 137 141 135 131 136 148 150 149 146 154 186 164 133 130 123 139 142 134 130 72 11 336 299 329 7 1 344 343 347 336 323 296 298 292 289 285 267
100 357 115 84 26 4 335 345 32 101 93 169 205 155 206 169 160 169 150 148 147 144 151 155 158 161 166 170 175 179 173 172 180 181 164 161 165 164 162 168 164 161 158 157 155 163 163 160 155 154 159 155 161 156 150 148 146 136 137 138 137 136 140 141 150 152 153 154 165 192 192 183 133 118 125 93 96 102 70 50 329 310 317 360 9 6 356 355 332 328 307 323 313 308 302 295 291
84 199 35 118 123 216 353 46 344 106 84 345 141 135 220 140 160 155 154 151 150 152 155 157 160 166 171 178 177 177 175 183 184 175 163 163 162 163 163 164 163 158 154 159 166 162 161 158 159 150 168 160 161 159 158 158 153 129 139 141 140 140 143 143 147 150 143 151 136 106 108 122 116 115 116 133 117 118 97 71 326 316 345 3 9 347 340 326 297 300 314 328 311 316 320 304 289
93 68 353 338 111 249 339 358 12 64 10 14 70 88 163 152 163 159 154 154 152 153 160 162 164 171 178 180 181 179 179 184 185 171 164 166 162 163 165 167 161 160 162 164 158 158 164 164 159 159 160 165 156 161 160 157 150 137 142 145 136 138 139 140 147 146 133 121 110 97 102 111 116 119 125 136 134 131 137 124 320 343 6 8 355 340 329 314 315 318 304 275 332 321 318 290 249
30 103 187 182 102 193 42 28 42 55 116 25 71 70 106 130 170 160 159 153 155 158 162 168 171 177 182 181 183 179 162 179 170 170 166 167 167 162 164 164 166 164 162 161 160 162 165 170 161 159 171 173 155 157 152 152 141 143 148 143 149 144 146 149 144 128 127 128 132 128 117 117 117 130 130 130 135 143 130 93 337 17 17 3 332 315 295 282 331 335 310 263 217 270 299 296 327
289 40 153 200 154 154 124 293 310 41 65 27 22 89 324 295 165 165 164 156 157 165 167 172 177 180 184 182 182 167 167 170 165 170 170 170 165 158 164 167 161 160 161 162 163 164 169 169 163 165 167 169 159 162 161 157 148 139 142 141 148 154 157 150 141 135 143 147 140 139 134 120 119 113 111 121 126 151 130 113 360 48 14 337 308 290 277 277 270 266 307 295 253 247 287 290 306
181 162 112 145 72 112 140 170 220 108 71 86 354 90 350 340 173 149 168 166 162 170 171 175 180 179 186 181 179 169 171 176 167 173 170 166 157 154 159 165 158 156 161 162 161 160 157 162 159 169 163 168 168 161 149 136 120 117 118 137 147 156 157 141 137 142 154 153 158 151 141 131 134 138 128 133 138 134 119 83 71 37 323 303 312 302 315 329 332 312 284 299 315 262 246 248 257
190 182 165 135 146 191 175 241 256 152 120 103 142 149 56 339 54 352 8 317 183 173 170 176 180 176 183 183 175 174 174 179 168 173 166 158 158 156 158 159 159 156 158 158 157 158 158 157 158 165 163 167 160 146 136 132 129 145 142 122 137 173 168 146 155 159 158 162 153 137 134 139 151 159 156 145 121 126 115 108 125 354 352 347 331 333 347 349 336 332 314 295 310 315 22 352 40
138 84 90 153 136 74 97 111 161 214 76 112 148 102 122 288 243 353 319 6 249 193 174 182 178 175 182 181 173 178 176 172 174 170 162 159 156 154 152 155 156 156 157 158 157 163 165 166 162 175 172 160 159 153 152 153 145 141 131 168 180 182 173 163 160 163 166 171 153 146 162 162 158 167 155 131 147 159 141 141 101 352 360 324 288 296 302 306 289 270 299 315 319 343 338 11 18
165 145 127 156 132 143 87 149 174 199 129 219 105 124 111 161 213 260 339 5 229 195 185 184 180 177 181 172 170 176 173 139 148 151 156 150 150 151 152 157 160 161 168 163 165 167 168 166 173 174 165 166 168 168 168 168 159 167 163 180 172 165 161 162 169 177 173 169 159 163 175 174 178 182 147 146 147 158 154 164 202 193 266 292 292 287 285 279 309 349 312 337 354 297 356 5 349
181 164 164 139 151 107 80 118 185 230 24 180 151 157 182 175 239 270 229 239 245 259 191 185 176 180 178 172 168 169 136 152 154 160 159 159 156 157 158 164 171 172 166 165 164 159 166 170 176 170 173 172 178 172 159 174 175 167 164 166 167 159 184 174 169 172 167 159 172 173 182 178 178 182 164 156 161 173 158 162 225 198 220 317 337 310 272 304 309 316 351 340 316 319 21 353 27
141 110 145 191 178 157 174 148 160 268 204 174 195 175 150 51 298 272 264 223 231 255 250 190 179 177 180 176 171 164 151 153 158 160 164 163 160 161 158 163 168 166 165 159 160 162 166 171 173 172 177 177 182 182 171 174 170 177 177 165 166 163 169 157 151 140 144 135 166 176 182 184 187 189 181 157 140 177 185 199 200 213 237 199 229 281 297 353 347 353 339 7 66 33 11 3 17
194 174 183 160 169 230 128 162 134 109 356 120 112 53 8 186 212 255 250 251 258 267 291 188 190 193 186 176 170 157 158 157 158 165 164 163 164 168 166 166 164 169 169 167 165 166 169 170 173 173 175 181 181 183 173 163 133 128 153 112 113 76 63 111 126 142 156 161 149 170 192 190 169 175 200 196 170 198 211 215 195 203 236 230 229 251 256 299 254 217 68 42 47 109 23 27 10
227 227 202 183 179 137 106 130 134 144 188 251 147 145 234 205 207 214 211 173 234 262 209 184 179 177 186 179 182 164 160 159 160 168 171 170 169 165 158 162 170 172 171 171 166 165 158 166 167 169 171 176 179 183 170 156 152 144 136 139 149 158 153 154 172 175 163 170 179 180 180 192 158 159 213 220 191 186 208 214 202 201 227 231 226 231 29 357 330 31 39 76 56 46 127 63 7
151 244 209 193 165 134 136 148 141 181 195 207 215 171 217 182 209 213 202 192 215 267 267 199 172 176 185 186 181 166 164 163 164 165 168 173 170 162 165 170 176 174 174 166 162 159 158 162 168 169 172 177 179 180 171 151 135 143 161 164 165 173 172 203 186 173 169 172 155 166 180 188 171 174 188 203 191 197 208 201 200 209 225 237 244 92 47 274 274 267 77 53 57 76 84 75 52
228 236 172 154 149 152 155 157 157 86 67 69 183 54 145 201 228 207 195 195 202 225 240 224 184 176 184 190 183 167 170 163 165 170 173 174 171 170 173 176 176 177 167 164 162 156 161 165 168 170 171 173 183 175 173 164 156 159 160 160 155 165 177 188 186 184 170 153 157 174 177 202 194 182 191 171 187 199 208 209 218 220 236 240 283 156 226 252 247 51 87 97 75 71 85 100 72
227 245 138 145 149 123 129 120 68 113 99 167 204 267 297 238 263 173 171 200 210 218 219 218 202 187 183 189 188 171 173 169 165 171 175 176 176 179 175 176 178 166 165 167 167 162 161 163 166 168 171 173 183 175 174 180 167 165 168 160 157 170 177 185 177 186 167 166 161 167 172 208 221 177 189 193 184 207 193 162 159 101 40 302 219 195 230 225 106 86 49 58 60 51 48 106 97
66 97 87 91 94 94 88 64 36 14 63 218 201 197 196 288 251 154 178 206 214 208 210 210 197 191 186 184 187 174 168 174 171 173 176 178 179 179 183 174 166 171 170 169 161 155 159 159 166 169 177 179 177 177 173 185 181 163 163 170 167 167 174 161 160 180 186 173 178 175 182 201 234 230 206 215 199 224 199 153 131 146 254 242 216 206 264 61 53 58 65 105 94 75 32 41 81
110 89 94 77 62 68 56 61 54 21 278 269 204 201 187 281 217 196 178 210 202 191 197 205 192 196 195 187 179 176 163 175 174 175 177 179 181 179 169 173 175 165 165 164 160 162 161 164 167 174 182 181 177 175 170 183 184 175 179 179 178 171 170 163 167 203 193 180 195 206 185 211 199 220 193 194 225 205 213 190 190 221 224 225 228 223 157 89 57 27 34 74 84 79 61 55 61
117 117 112 93 33 36 38 356 75 149 250 297 217 196 176 223 282 219 219 199 190 193 196 195 192 188 189 190 186 177 163 172 175 174 179 177 173 175 172 172 170 169 163 166 164 162 166 168 168 173 178 183 180 174 172 175 177 186 187 182 182 178 166 171 179 188 195 197 197 202 203 194 224 222 193 183 221 221 198 240 304 318 311 340 287 265 223 135 26 61 48 56 49 68 81 65 74
110 120 91 94 47 63 53 140 262 215 203 210 20 162 125 239 238 239 232 217 195 201 197 192 189 183 185 189 187 181 162 167 175 176 174 174 174 173 177 176 170 169 173 172 167 168 169 170 172 174 184 183 183 176 174 175 174 183 184 185 183 172 170 174 181 186 191 197 198 202 192 204 198 190 205 191 230 222 184 232 280 292 301 305 307 335 296 20 65 89 89 43 35 16 46 68 43
137 142 131 110 102 76 166 239 277 319 284 202 182 168 243 285 281 222 205 209 207 200 199 188 186 182 184 179 185 181 167 167 175 175 175 176 178 178 176 175 177 178 176 174 169 170 172 174 175 179 184 182 182 180 178 176 184 181 181 183 182 172 173 173 180 184 193 198 192 201 198 201 198 202 200 209 223 214 182 202 258 281 300 313 291 262 289 36 89 176 187 196 302 63 72 40 32
185 41 149 163 157 158 182 186 189 203 205 22 128 143 228 152 246 230 226 215 186 191 192 183 185 186 180 174 173 180 174 168 173 177 177 178 179 177 177 178 179 179 177 175 172 172 172 174 177 181 180 185 184 187 181 181 186 184 180 185 181 179 174 175 182 184 183 189 197 197 205 206 201 215 205 235 248 254 246 256 273 286 292 274 281 264 285 62 360 337 44 235 11 55 21 29 13
169 104 22 141 205 151 147 201 150 146 121 121 171 207 211 189 258 276 258 222 184 183 186 175 181 181 175 172 183 183 185 175 175 178 179 179 178 178 178 178 180 180 177 176 174 172 175 178 180 182 183 183 185 186 188 186 188 184 182 185 192 188 182 175 176 182 186 191 189 190 198 199 206 199 213 216 240 216 229 230 239 252 243 225 226 231 192 150 171 330 350 2 334 348 352 341 318
205 103 234 225 180 115 104 59 27 90 58 232 167 300 293 288 276 263 210 173 192 181 179 178 182 179 178 182 185 185 189 182 178 178 179 180 178 180 179 179 180 179 176 179 177 177 178 176 179 181 182 181 187 189 188 188 186 185 193 190 189 193 190 186 186 185 186 194 190 192 191 200 200 196 203 204 216 217 220 214 214 216 207 213 209 210 192 191 186 231 244 292 303 326 357 312 304
103 192 231 190 94 96 113 132 329 47 139 256 150 230 287 31 272 315 229 179 190 183 185 187 182 178 183 186 185 182 184 189 186 181 179 178 178 179 180 182 179 178 180 181 179 178 179 178 179 179 180 184 189 187 188 187 187 190 192 193 192 194 195 197 192 189 183 179 193 197 194 192 204 205 199 204 198 211 219 222 212 212 202 198 203 197 197 186 167 255 270 257 252 339 319 325 301
151 198 177 117 315 194 17 99 88 169 259 245 260 248 256 200 248 167 214 198 192 193 187 181 184 185 189 187 183 177 172 178 186 183 179 178 178 180 180 182 183 182 182 180 178 176 178 181 181 181 184 187 186 186 186 188 187 192 192 193 189 197 198 194 194 189 179 183 189 192 196 201 205 207 206 208 197 202 211 222 210 212 200 203 201 197 192 202 183 236 271 273 295 303 286 287 288
98 158 136 203 105 153 145 209 166 117 204 64 292 63 243 210 216 186 190 197 191 184 185 193 190 189 187 186 179 171 169 175 180 177 178 180 181 180 179 180 180 182 183 180 176 174 179 180 180 185 185 181 181 186 185 188 191 191 192 186 191 192 196 192 189 186 188 193 195 192 199 202 210 207 213 213 206 204 207 212 209 207 204 202 202 212 193 197 188 216 241 256 266 254 264 271 282
148 68 346 306 3 212 121 160 129 159 161 180 180 312 275 258 207 166 187 187 189 180 189 195 195 192 189 184 172 168 164 167 169 164 157 142 130 174 191 183 181 181 180 177 175 179 180 178 181 181 180 181 185 188 184 189 185 193 186 188 188 187 195 192 191 193 195 200 201 201 202 207 197 217 214 217 218 225 218 210 203 202 202 200 203 214 204 195 192 215 228 232 245 213 240 268 271
158 160 191 172 121 151 141 245 20 91 98 198 135 239 266 273 212 178 173 189 184 195 182 184 188 185 179 170 159 160 154 159 154 155 159 158 140 126 96 330 208 176 179 178 182 178 175 180 181 181 181 184 184 188 188 185 185 188 188 188 186 186 189 187 193 195 201 203 207 207 207 194 209 275 8 360 353 342 297 218 202 204 202 205 205 204 207 188 205 219 230 226 231 221 223 257 269